Location: ??????????
(41.2581°N, 22.8006°E)
Time: 21:51:00
(UTC+00:00)

Meteor 2-6 Rocket - Pass Details

Date: 13 December 2025
Orbit: 805 x 913 km, 81.3° (Epoch: 21 January)

Event Time Altitude Azimuth Distance (km) Brightness Sun altitude
Rises 17:18:31 0° 191° (SSW) 3,393 7.6 -25.1°
Reaches altitude 10° 17:20:53 10° 193° (SSW) 2,478 6.9 -25.6°
Maximum altitude 17:26:32 79° 280° (W) 894 4.3 -26.6°
Enters shadow 17:29:19 32° 2° (N) 1,461 5.3 -27.1°
